FW6574 Weather Reports


Display with metric or nautical units.
time (UTC)temp
F
wind
direction
speed
MPH
gust
MPH
rain 1hr
in
rain 24hr
in
rain mn
in
humidity
%
barometer
mb
20260504044535 41 0 0.0 0.0 0.00 0.00 0.00 81 1016.9
20260504044015 41 0 0.0 0.0 0.00 0.00 0.00 81 1016.8
20260504043515 41 0 0.0 0.0 0.00 0.00 0.00 80 1016.8
20260504043034 41 0 0.0 0.0 0.00 0.00 0.00 81 1016.5
20260504042516 41 0 0.0 0.0 0.00 0.00 0.00 81 1016.4
20260504042015 41 0 0.0 0.0 0.00 0.00 0.00 81 1016.5
20260504041541 40 0 0.0 0.0 0.00 0.00 0.00 81 1016.2
20260504041015 40 0 0.0 0.0 0.00 0.00 0.00 81 1016.3
20260504040515 40 0 0.0 0.0 0.00 0.00 0.00 81 1016.5
20260504040039 40 0 0.0 0.0 0.00 0.00 0.00 81 1016.5
20260504035515 40 0 0.0 0.0 0.00 0.00 0.00 82 1016.6
20260504035013 40 0 0.0 0.0 0.00 0.00 0.00 82 1016.6
20260504034543 39 0 0.0 0.0 0.00 0.00 0.00 81 1016.7
20260504034016 39 0 0.0 0.0 0.00 0.00 0.00 81 1016.5
20260504033514 39 0 0.0 0.0 0.00 0.00 0.00 81 1016.5
20260504033034 39 0 0.0 0.0 0.00 0.00 0.00 80 1016.4
20260504032515 39 0 0.0 0.0 0.00 0.00 0.00 80 1016.5
20260504032013 40 0 0.0 0.0 0.00 0.00 0.00 80 1016.5
20260504031534 40 0 0.0 0.0 0.00 0.00 0.00 80 1016.4
20260504031015 40 0 0.0 0.0 0.00 0.00 0.00 80 1016.6
20260504030515 40 0 0.0 0.0 0.00 0.00 0.00 78 1016.5
20260504030036 41 0 0.0 0.0 0.00 0.00 0.00 78 1016.5
20260504025515 41 0 0.0 0.0 0.00 0.00 0.00 78 1016.4
20260504025015 41 0 0.0 0.0 0.00 0.00 0.00 77 1016.6
20260504024531 41 0 0.0 0.0 0.00 0.00 0.00 78 1016.6
20260504024015 41 0 0.0 0.0 0.00 0.00 0.00 79 1016.6
20260504023515 41 0 0.0 0.0 0.00 0.00 0.00 77 1016.5
20260504023031 41 0 0.0 0.0 0.00 0.00 0.00 77 1016.7
20260504022515 42 0 0.0 0.0 0.00 0.00 0.00 78 1016.6
20260504022013 42 0 0.0 0.0 0.00 0.00 0.00 77 1016.5
20260504021532 42 0 0.0 0.0 0.00 0.00 0.00 76 1016.4
20260504021012 42 0 0.0 0.0 0.00 0.00 0.00 75 1016.4
20260504020514 43 0 0.0 0.0 0.00 0.00 0.00 75 1016.5
20260504020038 43 0 0.0 0.0 0.00 0.00 0.00 73 1016.4
20260504015511 43 0 0.0 0.0 0.00 0.00 0.00 71 1016.3
20260504015014 44 0 0.0 0.0 0.00 0.00 0.00 71 1016.2
20260504014537 44 0 0.0 0.0 0.00 0.00 0.00 71 1016.3
20260504014017 44 0 0.0 0.0 0.00 0.00 0.00 72 1016.2
20260504013514 44 0 0.0 0.0 0.00 0.00 0.00 72 1016.2
20260504013040 45 0 0.0 0.0 0.00 0.00 0.00 71 1016.0
20260504012513 45 0 0.0 0.0 0.00 0.00 0.00 71 1015.9
20260504012015 46 0 0.0 0.0 0.00 0.00 0.00 69 1015.7
20260504011532 46 0 0.0 0.0 0.00 0.00 0.00 69 1015.8
20260504011012 46 0 0.0 0.0 0.00 0.00 0.00 68 1015.7
20260504010515 47 0 0.0 0.0 0.00 0.00 0.00 67 1015.6
20260504010030 47 0 0.0 0.0 0.00 0.00 0.00 66 1015.7
20260504005513 48 0 0.0 0.0 0.00 0.00 0.00 66 1015.6
20260504005015 48 0 0.0 0.0 0.00 0.00 0.00 64 1015.6
20260504004533 49 0 0.0 0.0 0.00 0.00 0.00 62 1015.5
20260504004013 49 0 0.0 0.0 0.00 0.00 0.00 60 1015.4
20260504003516 50 0 0.0 0.0 0.00 0.00 0.00 63 1015.4
20260504003032 51 0 0.0 0.0 0.00 0.00 0.00 61 1015.3
20260504002514 51 0 0.0 0.0 0.00 0.00 0.00 60 1015.2
20260504002015 52 0 0.0 0.0 0.00 0.00 0.00 56 1015.2
20260504001536 52 0 0.0 0.0 0.00 0.00 0.00 54 1015.2
20260504001013 53 0 0.0 0.0 0.00 0.00 0.00 56 1015.1
20260504000515 54 0 0.0 0.0 0.00 0.00 0.00 55 1015.2
20260504000033 55 0 0.0 0.0 0.00 0.00 0.00 47 1015.0
20260503235513 56 0 0.0 2.0 0.00 0.00 0.00 52 1015.1
20260503235013 57 0 0.0 2.0 0.00 0.00 0.00 50 1015.1
20260503234533 58 0 0.0 2.0 0.00 0.00 0.00 44 1015.1
20260503234013 59 0 0.0 2.0 0.00 0.00 0.00 43 1015.1
20260503233512 60 0 0.0 2.0 0.00 0.00 0.00 35 1015.1
20260503233032 60 0 0.0 2.0 0.00 0.00 0.00 32 1015.1
20260503232517 60 0 0.0 3.0 0.00 0.00 0.00 36 1015.1
20260503232014 61 0 0.0 3.0 0.00 0.00 0.00 35 1014.9
20260503231532 62 0 0.0 3.0 0.00 0.00 0.00 33 1014.9
20260503231014 62 0 0.0 3.0 0.00 0.00 0.00 29 1014.9
20260503230516 62 296 0.0 3.0 0.00 0.00 0.00 28 1014.9
20260503230039 62 306 0.0 3.0 0.00 0.00 0.00 27 1014.8
20260503225514 62 288 1.0 3.0 0.00 0.00 0.00 29 1014.8
20260503225017 63 167 0.0 3.0 0.00 0.00 0.00 31 1014.6
20260503224533 63 0 0.0 4.0 0.00 0.00 0.00 29 1014.7
20260503224020 62 294 1.0 4.0 0.00 0.00 0.00 28 1014.8
20260503223516 62 0 0.0 4.0 0.00 0.00 0.00 28 1014.7
20260503223034 62 279 1.0 6.0 0.00 0.00 0.00 27 1014.9
20260503222516 63 215 1.0 6.0 0.00 0.00 0.00 28 1014.9
20260503222017 62 191 0.0 6.0 0.00 0.00 0.00 29 1015.0
20260503221533 62 234 2.0 6.0 0.00 0.00 0.00 27 1015.0
20260503221017 62 290 1.0 3.0 0.00 0.00 0.00 28 1015.0
20260503220514 62 22 0.0 3.0 0.00 0.00 0.00 27 1014.9
20260503220032 62 271 0.0 4.0 0.00 0.00 0.00 27 1015.2
20260503215516 63 0 1.0 4.0 0.00 0.00 0.00 26 1015.2
20260503215016 63 0 0.0 3.0 0.00 0.00 0.00 26 1015.2
20260503214539 63 167 0.0 3.0 0.00 0.00 0.00 27 1015.1
20260503214016 63 250 1.0 3.0 0.00 0.00 0.00 25 1015.2
20260503213514 63 0 1.0 6.0 0.00 0.00 0.00 25 1015.2
20260503213032 63 352 1.0 8.0 0.00 0.00 0.00 26 1015.2
20260503212515 63 170 0.0 8.0 0.00 0.00 0.00 25 1015.3
20260503212014 63 0 0.0 4.0 0.00 0.00 0.00 27 1015.3
20260503211532 63 0 0.0 4.0 0.00 0.00 0.00 25 1015.3
20260503211018 64 0 1.0 6.0 0.00 0.00 0.00 25 1015.4
20260503210514 63 281 1.0 6.0 0.00 0.00 0.00 26 1015.5
20260503210035 63 268 2.0 8.0 0.00 0.00 0.00 25 1015.4
20260503205517 63 282 3.0 8.0 0.00 0.00 0.00 24 1015.5
20260503205014 63 303 1.0 7.0 0.00 0.00 0.00 25 1015.5
20260503204533 63 280 2.0 7.0 0.00 0.00 0.00 23 1015.6
20260503204015 63 270 1.0 6.0 0.00 0.00 0.00 27 1015.6
20260503203519 63 132 1.0 9.0 0.00 0.00 0.00 25 1015.6
20260503203036 65 302 1.0 9.0 0.00 0.00 0.00 28 1015.7
20260503202519 64 188 1.0 7.0 0.00 0.00 0.00 26 1015.7
20260503202018 63 246 1.0 7.0 0.00 0.00 0.00 28 1015.7
20260503201532 64 173 1.0 7.0 0.00 0.00 0.00 29 1015.8
20260503201016 63 280 2.0 7.0 0.00 0.00 0.00 28 1016.0
20260503200516 62 0 1.0 7.0 0.00 0.00 0.00 28 1016.0
20260503200033 63 290 3.0 7.0 0.00 0.00 0.00 27 1016.3
20260503195516 64 307 2.0 7.0 0.00 0.00 0.00 29 1016.3
20260503195019 63 0 0.0 4.0 0.00 0.00 0.00 30 1016.2
20260503194531 63 0 0.0 4.0 0.00 0.00 0.00 28 1016.3
20260503194015 63 229 1.0 5.0 0.00 0.00 0.00 27 1016.4
20260503193513 63 0 1.0 5.0 0.00 0.00 0.00 28 1016.7
20260503193043 62 241 2.0 7.0 0.00 0.00 0.00 29 1016.7
20260503192514 62 321 2.0 7.0 0.00 0.00 0.00 29 1016.8
20260503192013 61 303 2.0 7.0 0.00 0.00 0.00 28 1016.9
20260503191559 61 165 2.0 7.0 0.00 0.00 0.00 30 1017.0
20260503191013 61 268 3.0 7.0 0.00 0.00 0.00 27 1017.1
20260503190513 62 197 1.0 7.0 0.00 0.00 0.00 28 1017.0
20260503190035 61 276 1.0 8.0 0.00 0.00 0.00 30 1017.1
20260503185516 62 283 3.0 8.0 0.00 0.00 0.00 31 1017.2
20260503185014 61 235 2.0 7.0 0.00 0.00 0.00 29 1017.4
20260503184536 61 229 3.0 7.0 0.00 0.00 0.00 30 1017.6
20260503184013 61 300 2.0 7.0 0.00 0.00 0.00 32 1017.7
20260503183520 61 72 1.0 5.0 0.00 0.00 0.00 31 1017.7
20260503183030 61 330 1.0 5.0 0.00 0.00 0.00 32 1017.8
20260503182512 60 316 2.0 7.0 0.00 0.00 0.00 31 1017.8
20260503182014 60 308 3.0 7.0 0.00 0.00 0.00 31 1017.9
20260503181545 60 250 2.0 7.0 0.00 0.00 0.00 32 1018.0
20260503181014 60 0 2.0 8.0 0.00 0.00 0.00 30 1018.0
20260503180514 60 350 2.0 8.0 0.00 0.00 0.00 33 1018.1
20260503180033 59 279 3.0 9.0 0.00 0.00 0.00 33 1018.2
20260503175513 58 291 1.0 9.0 0.00 0.00 0.00 34 1018.1
20260503175016 58 233 4.0 9.0 0.00 0.00 0.00 34 1018.1
20260503174539 58 0 1.0 6.0 0.00 0.00 0.00 35 1018.2
20260503174016 58 257 2.0 8.0 0.00 0.00 0.00 34 1018.4
20260503173512 58 0 2.0 8.0 0.00 0.00 0.00 36 1018.3
20260503173032 57 246 4.0 8.0 0.00 0.00 0.00 35 1018.4
20260503172510 58 225 2.0 7.0 0.00 0.00 0.00 35 1018.4
20260503172015 58 295 1.0 7.0 0.00 0.00 0.00 36 1018.6
20260503171530 57 252 2.0 7.0 0.00 0.00 0.00 35 1018.6
20260503171014 57 285 2.0 7.0 0.00 0.00 0.00 34 1018.6
20260503170515 58 352 1.0 7.0 0.00 0.00 0.00 36 1018.8
20260503151014 52 237 3.0 10.0 0.00 0.00 0.00 43 1019.9
20260503150512 51 236 3.0 8.0 0.00 0.00 0.00 43 1019.8
20260503131014 45 0 1.0 6.0 0.00 0.00 0.00 51 1019.9
20260503130515 45 0 2.0 6.0 0.00 0.00 0.00 51 1019.8
20260503110515 34 0 0.0 0.0 0.00 0.00 0.00 89 1018.7
20260503081540 34 0 0.0 0.0 0.00 0.00 0.00 90 1016.4
20260503081016 34 0 0.0 0.0 0.00 0.00 0.00 90 1016.5
20260503080514 34 0 0.0 0.0 0.00 0.00 0.00 90 1016.3
20260503072516 35 0 0.0 0.0 0.00 0.00 0.00 89 1016.1
20260503072016 35 0 0.0 0.0 0.00 0.00 0.00 88 1016.2
20260503071533 35 0 0.0 0.0 0.00 0.00 0.00 88 1016.2
20260503071016 35 0 0.0 0.0 0.00 0.00 0.00 88 1016.1
20260503070519 35 0 0.0 0.0 0.00 0.00 0.00 88 1016.1
20260503055013 37 0 0.0 0.0 0.00 0.00 0.00 84 1016.0
20260503054544 37 0 0.0 0.0 0.00 0.00 0.00 84 1016.1
20260503054012 37 0 0.0 0.0 0.00 0.00 0.00 84 1016.0
20260503053516 37 0 0.0 0.0 0.00 0.00 0.00 84 1016.0
20260503053032 37 0 0.0 0.0 0.00 0.00 0.00 83 1015.9
20260503052516 38 0 0.0 0.0 0.00 0.00 0.00 83 1015.9
20260503052016 38 0 0.0 3.0 0.00 0.00 0.00 83 1015.8
20260503051532 38 0 0.0 3.0 0.00 0.00 0.00 82 1015.9
20260503051015 38 0 0.0 0.0 0.00 0.00 0.00 82 1015.7
20260503050516 38 0 0.0 0.0 0.00 0.00 0.00 81 1015.8
20260503050035 38 0 0.0 0.0 0.00 0.00 0.00 81 1015.8
20260503045516 38 0 0.0 0.0 0.00 0.00 0.00 80 1015.7
20260503045017 39 0 0.0 0.0 0.00 0.00 0.00 80 1015.7